This is the latest recevied weather packets stored in our database for station/object IT9RID. If no packets are shown the sender has not sent any weather packets the latest 10 day(s).
| Time | Temp. | Humidity | Pressure | Rain* | Wind** | Luminosity | Snow |
|---|---|---|---|---|---|---|---|
| 1787878046 | 27.22° C | 50% | 1016.9 hPa | 0 mm | - | - | - |
| 1787877446 | 27.22° C | 49% | 1016.9 hPa | 0 mm | - | - | - |
| 1787876846 | 27.22° C | 51% | 1016.9 hPa | 0 mm | - | - | - |
| 1787876245 | 27.78° C | 50% | 1016.9 hPa | 0 mm | - | - | - |
| 1787875645 | 27.78° C | 49% | 1016.8 hPa | 0 mm | - | - | - |
| 1787875045 | 27.22° C | 54% | 1017 hPa | 0 mm | - | - | - |
| 1787874445 | 27.78° C | 52% | 1017.1 hPa | 0 mm | - | - | - |
| 1787873845 | 27.22° C | 53% | 1017.2 hPa | 0 mm | - | - | - |
| 1787873245 | 27.78° C | 54% | 1017.3 hPa | 0 mm | - | - | - |
| 1787872644 | 27.78° C | 53% | 1017.4 hPa | 0 mm | - | - | - |
| 1787872044 | 27.78° C | 50% | 1017.5 hPa | 0 mm | - | - | - |
| 1787871444 | 27.78° C | 50% | 1017.5 hPa | 0 mm | - | - | - |
| 1787870844 | 27.78° C | 54% | 1017.5 hPa | 0 mm | - | - | - |
| 1787870244 | 27.78° C | 55% | 1017.7 hPa | 0 mm | - | - | - |
| 1787869644 | 27.78° C | 55% | 1017.8 hPa | 0 mm | - | - | - |
| 1787869044 | 27.78° C | 61% | 1018 hPa | 0 mm | - | - | - |
| 1787868444 | 27.78° C | 62% | 1018 hPa | 0 mm | - | - | - |
| 1787867843 | 27.78° C | 61% | 1017.9 hPa | 0 mm | - | - | - |
| 1787867243 | 27.78° C | 63% | 1017.9 hPa | 0 mm | - | - | - |
| 1787866643 | 27.78° C | 63% | 1017.7 hPa | 0 mm | - | - | - |
| 1787866043 | 27.78° C | 63% | 1017.8 hPa | 0 mm | - | - | - |
| 1787865444 | 27.78° C | 64% | 1017.8 hPa | 0 mm | - | - | - |
| 1787864842 | 28.33° C | 64% | 1017.8 hPa | 0 mm | - | - | - |
| 1787864242 | 28.33° C | 66% | 1017.8 hPa | 0 mm | - | - | - |
| 1787863642 | 28.33° C | 67% | 1017.9 hPa | 0 mm | - | - | - |
* Rain latest hour (hover to see other rain measurements)
** Current wind speed in m/s (hover to see current wind gust speed)